{"data":{"norad_id":53189,"epoch":"2026-09-20T03:32:18.790080Z","epoch_age_seconds":102711,"freshness":"FRESH","line1":"1 53189U 22084A   26263.14743970  .00001107  00000+0  36612-4 0  9996","line2":"2 53189  97.2837 318.8993 0001396  92.7402 267.4000 15.33436391229378","mean_motion":15.33436391,"eccentricity":0.0001396,"inclination_deg":97.2837,"raan_deg":318.8993,"arg_perigee_deg":92.7402,"mean_anomaly_deg":267.4,"bstar":3.6612e-5,"rev_number":22937,"period_min":93.906731863911,"perigee_km":464.61340759689,"apogee_km":466.52417025315,"semimajor_km":6843.705788925,"source":"CELESTRAK","updated_at":"2026-09-20T09:00:40.188758Z"}}